Change the Weather History Date:

Monday, October 13, 2014

  Actual Average Record
Temperature  
Mean Temperature 52 °F -  
Max Temperature 53 °F 60 °F 83 °F (1956)
Min Temperature 50 °F 37 °F 22 °F (1979)
Degree Days  
Heating Degree Days 14    
Growing Degree Days 2 (Base 50)    
Moisture  
Dew Point 51 °F    
Average Humidity 96    
Maximum Humidity 100    
Minimum Humidity 88    
Precipitation  
Precipitation 0.00 in - - ()
Sea Level Pressure  
Sea Level Pressure 29.80 in    
Wind  
Wind Speed 5 mph (North)    
Max Wind Speed 15 mph    
Max Gust Speed 21 mph    
Visibility 7 miles    
Events Rain    
Averages and records for this station are not official NWS values.
T = Trace of Precipitation, MM = Missing Value Source: NWS Daily Summary

Daily Weather History Graph

Daily Weather History Graph

Search for Another Location

Airport or City:

Trip Planner

Search our weather history database for the weather conditions in past years. The results will help you decide how hot, cold, wet, or windy it might be!

Date:

Astronomy

Oct. 13, 2014 Rise Set
Actual Time 7:31 AM CDT 6:36 PM CDT
Civil Twilight 7:01 AM CDT 7:05 PM CDT
Nautical Twilight 6:27 AM CDT 7:39 PM CDT
Astronomical Twilight 5:53 AM CDT 8:14 PM CDT
Moon 10:39 PM CDT (10/13) 12:54 PM CDT (10/13)
Length of Visible Light 12h 04m
Length of Day
11h 05m
Waning Gibbous, 70% of the Moon is Illuminated
Oct 13
Waning Gibbous
Oct 15
Last Quarter
Oct 23
New
Oct 30
First Quarter
Nov 6
Full

Hourly Weather History & Observations

Time (CDT) Temp. Dew Point Humidity Pressure Visibility Wind Dir Wind Speed Gust Speed Precip Events Conditions
12:13 AM 53.6 °F 51.8 °F 94% 29.76 in 7.0 mi SSE 5.8 mph - N/A   Mostly Cloudy
12:32 AM 53.6 °F 51.8 °F 94% 29.76 in 10.0 mi SSE 4.6 mph - N/A   Overcast
12:53 AM 53.6 °F 51.8 °F 94% 29.76 in 7.0 mi SSE 3.5 mph - N/A   Mostly Cloudy
1:13 AM 53.6 °F 51.8 °F 94% 29.77 in 10.0 mi SSE 4.6 mph - N/A   Mostly Cloudy
1:32 AM 53.6 °F 51.8 °F 94% 29.77 in 7.0 mi South 3.5 mph - N/A   Overcast
1:53 AM 53.6 °F 51.8 °F 94% 29.77 in 7.0 mi SSE 4.6 mph - N/A   Overcast
2:13 AM 53.6 °F 51.8 °F 94% 29.77 in 7.0 mi SSE 3.5 mph - N/A   Overcast
2:32 AM 53.6 °F 51.8 °F 94% 29.77 in 7.0 mi Calm Calm - N/A   Overcast
2:53 AM 53.6 °F 51.8 °F 94% 29.76 in 7.0 mi SSE 3.5 mph - N/A   Overcast
3:13 AM 53.6 °F 51.8 °F 94% 29.75 in 7.0 mi Calm Calm - N/A   Overcast
3:32 AM 51.8 °F 51.8 °F 100% 29.75 in 7.0 mi Calm Calm - N/A   Overcast
3:53 AM 51.8 °F 51.8 °F 100% 29.74 in 7.0 mi Calm Calm - N/A   Overcast
4:12 AM 51.8 °F 51.8 °F 100% 29.74 in 7.0 mi Calm Calm - N/A   Overcast
4:33 AM 51.8 °F 51.8 °F 100% 29.75 in 7.0 mi SSE 4.6 mph - N/A   Overcast
4:53 AM 51.8 °F 51.8 °F 100% 29.75 in 7.0 mi SSE 3.5 mph - N/A   Overcast
5:12 AM 53.6 °F 51.8 °F 94% 29.76 in 7.0 mi SSE 3.5 mph - N/A   Overcast
5:33 AM 53.6 °F 51.8 °F 94% 29.76 in 7.0 mi SSE 3.5 mph - N/A   Overcast
5:53 AM 53.6 °F 51.8 °F 94% 29.76 in 7.0 mi Calm Calm - N/A   Overcast
6:13 AM 51.8 °F 51.8 °F 100% 29.76 in 7.0 mi Calm Calm - N/A   Overcast
6:32 AM 51.8 °F 51.8 °F 100% 29.76 in 7.0 mi Calm Calm - N/A   Overcast
6:53 AM 51.8 °F 51.8 °F 100% 29.76 in 7.0 mi Calm Calm - N/A   Overcast
7:13 AM 51.8 °F 51.8 °F 100% 29.77 in 7.0 mi Calm Calm - N/A   Overcast
7:32 AM 51.8 °F 51.8 °F 100% 29.77 in 7.0 mi Calm Calm - N/A   Overcast
7:53 AM 51.8 °F 51.8 °F 100% 29.77 in 5.0 mi Calm Calm - N/A   Overcast
8:13 AM 51.8 °F 51.8 °F 100% 29.77 in 5.0 mi Calm Calm - N/A   Overcast
8:32 AM 51.8 °F 51.8 °F 100% 29.78 in 5.0 mi Calm Calm - N/A   Overcast
8:53 AM 53.6 °F 51.8 °F 94% 29.79 in 5.0 mi Calm Calm - N/A   Overcast
9:13 AM 53.6 °F 51.8 °F 94% 29.79 in 5.0 mi Calm Calm - N/A   Overcast
9:32 AM 53.6 °F 51.8 °F 94% 29.79 in 5.0 mi Calm Calm - N/A   Overcast
9:53 AM 53.6 °F 51.8 °F 94% 29.80 in 5.0 mi Calm Calm - N/A   Overcast
10:13 AM 53.6 °F 53.6 °F 100% 29.81 in 5.0 mi NNW 4.6 mph - N/A   Overcast
10:32 AM 53.6 °F 51.8 °F 94% 29.81 in 5.0 mi NW 5.8 mph - N/A   Overcast
10:53 AM 53.6 °F 53.6 °F 100% 29.81 in 4.0 mi NNW 5.8 mph - N/A   Overcast
11:13 AM 53.6 °F 53.6 °F 100% 29.81 in 7.0 mi NNW 6.9 mph - N/A   Overcast
11:32 AM 53.6 °F 53.6 °F 100% 29.81 in 7.0 mi NNW 5.8 mph - N/A   Overcast
11:53 AM 53.6 °F 53.6 °F 100% 29.82 in 7.0 mi NNW 6.9 mph - N/A   Overcast
12:13 PM 53.6 °F 53.6 °F 100% 29.81 in 10.0 mi NNW 9.2 mph - N/A   Overcast
12:32 PM 53.6 °F 53.6 °F 100% 29.80 in 10.0 mi NNW 9.2 mph - N/A   Overcast
12:53 PM 53.6 °F 51.8 °F 94% 29.80 in 10.0 mi NNW 10.4 mph - N/A   Overcast
1:13 PM 53.6 °F 51.8 °F 94% 29.80 in 4.0 mi NNW 9.2 mph - N/A   Overcast
1:32 PM 51.8 °F 51.8 °F 100% 29.80 in 2.0 mi NNW 9.2 mph - N/A   Overcast
1:53 PM 51.8 °F 51.8 °F 100% 29.80 in 1.2 mi NNW 10.4 mph - N/A Rain Rain
2:13 PM 51.8 °F 51.8 °F 100% 29.80 in 1.5 mi NNW 11.5 mph - N/A   Light Drizzle
2:32 PM 51.8 °F 51.8 °F 100% 29.80 in 1.5 mi NNW 11.5 mph - N/A   Drizzle
2:53 PM 51.8 °F 51.8 °F 100% 29.81 in 2.0 mi NNW 11.5 mph 17.3 mph N/A   Light Drizzle
3:12 PM 51.8 °F 51.8 °F 100% - 2.0 mi NNW 12.7 mph - N/A   Light Drizzle
3:33 PM 51.8 °F 51.8 °F 100% 29.82 in 2.5 mi NNW 11.5 mph - N/A   Light Drizzle
3:53 PM 51.8 °F 51.8 °F 100% 29.83 in 4.0 mi NNW 13.8 mph 18.4 mph N/A   Drizzle
4:12 PM 51.8 °F 51.8 °F 100% 29.83 in 5.0 mi North 12.7 mph 17.3 mph N/A   Light Drizzle
4:33 PM 51.8 °F 51.8 °F 100% 29.83 in 4.0 mi North 12.7 mph 17.3 mph N/A   Overcast
4:53 PM 51.8 °F 51.8 °F 100% 29.83 in 7.0 mi North 15.0 mph 20.7 mph N/A   Overcast
5:12 PM 51.8 °F 51.8 °F 100% 29.83 in 10.0 mi North 11.5 mph 20.7 mph N/A   Overcast
5:33 PM 51.8 °F 51.8 °F 100% 29.83 in 10.0 mi North 11.5 mph 17.3 mph N/A   Overcast
5:52 PM 50.0 °F 50.0 °F 100% 29.83 in 10.0 mi North 9.2 mph 17.3 mph N/A   Overcast
6:13 PM 51.8 °F 51.8 °F 100% 29.83 in 10.0 mi North 10.4 mph - N/A   Scattered Clouds
6:33 PM 51.8 °F 50.0 °F 94% 29.83 in 10.0 mi North 11.5 mph - N/A   Clear
6:53 PM 51.8 °F 50.0 °F 94% 29.83 in 10.0 mi North 10.4 mph - N/A   Clear
7:12 PM 51.8 °F 50.0 °F 94% 29.83 in 10.0 mi North 10.4 mph 18.4 mph N/A   Clear
7:33 PM 51.8 °F 50.0 °F 94% 29.84 in 10.0 mi North 12.7 mph 17.3 mph N/A   Clear
7:53 PM 51.8 °F 48.2 °F 88% 29.84 in 10.0 mi North 11.5 mph 17.3 mph N/A   Clear
8:12 PM 51.8 °F 48.2 °F 88% 29.84 in 10.0 mi North 9.2 mph - N/A   Clear
8:33 PM 51.8 °F 48.2 °F 88% 29.84 in 10.0 mi North 11.5 mph 18.4 mph N/A   Clear
8:53 PM 51.8 °F 48.2 °F 88% 29.84 in 10.0 mi North 10.4 mph - N/A   Clear
9:12 PM 51.8 °F 48.2 °F 88% 29.85 in 10.0 mi North 11.5 mph 17.3 mph N/A   Clear
9:33 PM 51.8 °F 48.2 °F 88% 29.85 in 10.0 mi North 9.2 mph - N/A   Clear
9:53 PM 51.8 °F 48.2 °F 88% 29.85 in 10.0 mi North 11.5 mph - N/A   Clear
10:12 PM 50.0 °F 48.2 °F 94% 29.84 in 10.0 mi North 11.5 mph 16.1 mph N/A   Clear
10:33 PM 50.0 °F 48.2 °F 94% 29.85 in 10.0 mi North 10.4 mph - N/A   Clear
10:52 PM 50.0 °F 48.2 °F 94% 29.85 in 10.0 mi North 10.4 mph - N/A   Clear
11:01 PM 50.0 °F 48.2 °F 94% 29.85 in 10.0 mi North 9.2 mph 16.1 mph N/A   Scattered Clouds